Location: Unspecified
(43.3830°N, 0.0000°E)
Time: 10:46:06
(UTC+00:00)

Vanguard 2 - Pass Details

Date: 27 June 2019
Orbit: 553 x 2938 km, 32.9° (Epoch: 19 July)

Event Time Altitude Azimuth Distance (km) Brightness Sun altitude
Rises 07:13:45 0° 232° (SW) 2,781 10.0 28.3°
Reaches altitude 10° 07:16:09 10° 216° (SW) 1,996 9.4 28.8°
Maximum altitude 07:19:42 23° 163° (SSE) 1,542 9.4 29.4°
Drops below altitude 10° 07:24:18 10° 112° (ESE) 2,666 11.4 30.3°
Sets 07:28:05 0° 100° (E) 4,016 12.3 30.9°
